[[{"header":{"parameterUnit":"m.s-1","parameterCategory":1,"la1":30.2991,"la2":30.254,"lo1":-89.0895,"lo2":-89.0444,"dy":0.0017,"dx":0.0017,"nx":28,"ny":28,"refTime":"2025-03-25T09:00:00:Z","depth":0,"parameterNumber":2,"parameterNumberName":"U-component_of_WINDS"},"data":[0,0,0,0,0,0,0,0,0,0,0,0,0,0,0,0,0,0,0,0,0,0,0,0,0,0,0,0,0,0,0,0,0,0,0,0,0,0,0,0,0,0,0,0,0,0,0,0,0,0,0,0,0,0,0,0,0,0,-1.2464,-1.2464,0,-1.2476,-1.2477,-1.2477,-1.2425,-1.2423,-1.2422,-1.242,-1.2433,-1.2434,-1.2436,0,0,0,0,0,0,0,0,0,0,0,0,0,-1.2393,-1.2395,-1.2464,-1.2464,-1.2464,-1.2476,-1.2477,-1.2477,-1.2425,-1.2423,-1.2421,-1.2419,-1.2432,-1.2434,-1.2436,0,0,0,0,0,0,0,0,0,0,0,0,0,-1.2417,-1.2396,-1.2464,-1.244,-1.2438,-1.2476,-1.2477,-1.2477,-1.2425,-1.2423,-1.2421,-1.2418,-1.2431,-1.2434,-1.2437,-1.2499,0,0,-1.2445,-1.2446,0,0,0,0,0,0,0,0,-1.2416,-1.242,-1.2443,-1.2441,-1.2439,-1.2447,-1.2456,-1.2484,-1.2426,-1.243,-1.242,-1.2417,-1.2439,-1.2441,-1.2448,-1.25,-1.25,-1.2445,-1.2447,-1.2448,-1.2448,0,0,0,0,0,0,0,-1.2414,-1.2419,-1.2469,-1.2443,-1.2441,-1.2428,-1.2429,-1.2461,-1.2447,-1.2429,-1.2426,-1.2428,-1.2438,-1.2446,-1.2448,-1.25,-1.2445,-1.2447,-1.2449,-1.245,-1.2604,-1.2606,0,0,0,0,0,0,-1.2416,-1.2418,-1.2468,-1.2469,-1.2421,-1.2431,-1.2432,-1.2446,-1.2447,-1.2445,-1.243,-1.2425,-1.2443,-1.2445,-1.2449,-1.2522,-1.2448,-1.245,-1.2452,-1.2602,-1.2605,-1.2607,0,0,0,0,0,0,-1.2414,-1.2421,-1.2468,-1.2442,-1.2447,-1.2435,-1.2451,-1.2448,-1.2456,-1.2447,-1.2444,-1.2441,-1.2441,-1.2445,-1.2487,-1.2522,-1.2451,-1.2454,-1.2599,-1.2602,-1.2606,-1.267,0,0,0,0,0,0,-1.2413,-1.2421,-1.2444,-1.2443,-1.2449,-1.2506,-1.2454,-1.245,-1.2461,-1.2455,-1.2457,-1.2455,-1.2439,-1.2483,-1.249,-1.2525,-1.2456,-1.2595,-1.26,-1.2605,-1.2665,-1.2676,-1.2685,0,0,0,0,0,-1.241,-1.2462,-1.2446,-1.2452,-1.2478,-1.2508,-1.2512,-1.2493,-1.2464,-1.2488,-1.2482,-1.2455,-1.2517,-1.2488,-1.2495,-1.2531,-1.2593,-1.2599,-1.2604,-1.2661,-1.2674,-1.2685,0,0,0,0,0,0,-1.2467,-1.2461,-1.2443,-1.2496,-1.2503,-1.25,-1.2529,-1.2507,-1.2523,-1.2517,-1.2492,-1.2493,-1.254,-1.2539,-1.2507,-1.2592,-1.255,-1.2557,-1.2591,-1.2603,-1.2613,-1.2612,-1.2458,0,0,0,0,0,-1.2485,-1.2511,-1.2504,-1.2551,-1.2556,-1.2542,-1.2554,-1.2539,-1.2546,-1.2548,-1.2545,-1.2553,-1.2574,-1.2588,-1.2607,-1.2664,-1.2664,-1.2692,-1.2702,-1.2711,-1.2718,-1.2749,-1.2761,-1.2626,-1.2626,-1.2626,0,0,-1.2524,-1.2524,-1.2541,-1.2563,-1.2566,-1.2593,-1.2545,-1.2575,-1.2594,-1.2553,-1.2593,-1.2591,-1.2597,-1.2648,-1.267,-1.2649,-1.2755,-1.2718,-1.2725,-1.2727,-1.2756,-1.2769,-1.278,-1.263,-1.2629,-1.2628,0,0,-1.2609,-1.2611,-1.2651,-1.2656,-1.2662,-1.2653,-1.2662,-1.2662,-1.2659,-1.2699,-1.2669,-1.2691,-1.2728,-1.2734,-1.2742,-1.2829,-1.2805,-1.2835,-1.2888,-1.2919,-1.2929,-1.2939,-1.2971,-1.2982,-1.2842,-1.2842,-1.2842,0,-1.2656,-1.2695,-1.2674,-1.2706,-1.2717,-1.268,-1.2721,-1.2726,-1.2739,-1.2747,-1.2723,-1.2768,-1.277,-1.2822,-1.2843,-1.285,-1.2861,-1.2836,-1.293,-1.2939,-1.2947,-1.2977,-1.2989,-1.2846,-1.2846,-1.2845,-1.2845,0,-1.2753,-1.2781,-1.2812,-1.2826,-1.284,-1.2876,-1.286,-1.2876,-1.286,-1.2853,-1.2894,-1.2895,-1.2913,-1.2924,-1.2908,-1.2974,-1.2961,-1.2934,-1.2892,-1.2964,-1.2992,-1.3004,-1.2851,-1.285,-1.2849,-1.2848,0,0,-1.2874,-1.2876,-1.2888,-1.2894,-1.2898,-1.2919,-1.2954,-1.2972,-1.2987,-1.2997,-1.3025,-1.3057,-1.3032,-1.3041,-1.3026,-1.3052,-1.3122,-1.3022,-1.3022,-1.3041,-1.3196,-1.3217,-1.3231,-1.3106,-1.3108,-1.311,-1.3195,0,-1.2958,-1.3018,-1.3,-1.306,-1.3086,-1.3051,-1.3081,-1.3087,-1.3082,-1.3103,-1.3096,-1.3119,-1.3084,-1.3089,-1.3114,-1.3109,-1.3153,-1.3102,-1.3133,-1.3134,-1.3134,-1.3245,-1.3268,-1.3349,-1.3206,-1.3208,-1.3209,0,-1.3064,-1.3078,-1.3142,-1.3142,-1.3152,-1.318,-1.3196,-1.3216,-1.3222,-1.3216,-1.3226,-1.3205,-1.3239,-1.3196,-1.3242,-1.3208,-1.3219,-1.3219,-1.3221,-1.3224,-1.3177,-1.3252,-1.3374,-1.3387,-1.3226,-1.3225,-1.3223,0,-1.3147,-1.3182,-1.3225,-1.3231,-1.3232,-1.3253,-1.3254,-1.3258,-1.3271,-1.3284,-1.3292,-1.3309,-1.3319,-1.3333,-1.3317,-1.3287,-1.3366,-1.3322,-1.3363,-1.3363,-1.3382,-1.3381,-1.3508,-1.3387,-1.3387,-1.3387,-1.3387,0,-1.3243,-1.3284,-1.3263,-1.3289,-1.3333,-1.3311,-1.3355,-1.3353,-1.3357,-1.3382,-1.3352,-1.3377,-1.3353,-1.3376,-1.3363,-1.3404,-1.3408,-1.3405,-1.3401,-1.3408,-1.3409,-1.3416,-1.341,-1.339,-1.3389,-1.3389,-1.3388,0,-1.3345,-1.3332,-1.3376,-1.3374,-1.3375,-1.3407,-1.3406,-1.343,-1.3422,-1.3454,-1.346,-1.3448,-1.3472,-1.3458,-1.3482,-1.3474,-1.3528,-1.3516,-1.3526,-1.3523,-1.3565,-1.3562,-1.3703,-1.372,-1.3587,-1.3588,-1.3589,0,-1.3407,-1.3438,-1.3439,-1.3454,-1.3458,-1.3482,-1.3495,-1.3475,-1.3489,-1.3499,-1.3522,-1.3544,-1.3561,-1.3601,-1.3594,-1.3613,-1.3602,-1.365,-1.3605,-1.3611,-1.3604,-1.3603,-1.3606,-1.366,-1.3661,-1.3662,-1.3663,0,-1.3521,-1.3513,-1.3533,-1.3551,-1.3567,-1.358,-1.3591,-1.3604,-1.3584,-1.3602,-1.3627,-1.364,-1.3665,-1.3688,-1.3704,-1.3705,-1.3681,-1.3677,-1.3688,-1.3696,-1.3702,-1.37,-1.3552,-1.3675,-1.3674,-1.3673,-1.3672,-1.3672,-1.3605,-1.3631,-1.3636,-1.366,-1.3665,-1.3676,-1.3699,-1.3694,-1.3715,-1.3734,-1.3721,-1.3751,-1.3756,-1.3775,-1.3779,-1.3802,-1.3782,-1.3798,-1.3802,-1.3806,-1.3812,-1.3697,-1.3804,-1.3804,-1.3804,-1.3803,-1.3803,0,-1.3718,-1.372,-1.3741,-1.3757,-1.3776,-1.3752,-1.3762,-1.3779,-1.3806,-1.3813,-1.383,-1.3859,-1.3881,-1.3875,-1.3895,-1.3914,-1.3904,-1.392,-1.3919,-1.392,-1.3828,-1.3818,-1.3928,-1.3928,-1.3928,-1.3928,-1.3928,-1.3928,-1.3779,-1.3821,-1.3814,-1.386,-1.3861,-1.389,-1.3898,-1.3908,-1.3914,-1.3947,-1.3965,-1.3962,-1.3964,-1.3984,-1.4002,-1.4,-1.4009,-1.403,-1.4024,-1.3938,-1.3926,-1.3914,-1.3904,-1.4031,-1.4032,-1.4114,-1.4114,-1.4115]},{"header":{"parameterUnit":"m.s-1","parameterCategory":1,"la1":30.2991,"la2":30.254,"lo1":-89.0895,"lo2":-89.0444,"dy":0.0017,"dx":0.0017,"nx":28,"ny":28,"refTime":"2025-03-25T09:00:00:Z","depth":0,"parameterNumber":3,"parameterNumberName":"V-component_of_WINDS"},"data":[0,0,0,0,0,0,0,0,0,0,0,0,0,0,0,0,0,0,0,0,0,0,0,0,0,0,0,0,0,0,0,0,0,0,0,0,0,0,0,0,0,0,0,0,0,0,0,0,0,0,0,0,0,0,0,0,0,0,-1.8358,-1.8359,0,-1.8416,-1.8417,-1.8418,-1.8417,-1.8416,-1.8415,-1.8414,-1.8473,-1.8475,-1.8477,0,0,0,0,0,0,0,0,0,0,0,0,0,-1.8245,-1.8247,-1.8358,-1.8359,-1.836,-1.8416,-1.8417,-1.8418,-1.8417,-1.8416,-1.8415,-1.8414,-1.8472,-1.8474,-1.8477,0,0,0,0,0,0,0,0,0,0,0,0,0,-1.8297,-1.8247,-1.8358,-1.8366,-1.8367,-1.8416,-1.8417,-1.8418,-1.8417,-1.8416,-1.8415,-1.8414,-1.8471,-1.8474,-1.8478,-1.8522,0,0,-1.8488,-1.8489,0,0,0,0,0,0,0,0,-1.8294,-1.8302,-1.8364,-1.8366,-1.8367,-1.8408,-1.8398,-1.8453,-1.8417,-1.8398,-1.8414,-1.8413,-1.8452,-1.8457,-1.847,-1.8525,-1.8527,-1.8488,-1.849,-1.8492,-1.8493,0,0,0,0,0,0,0,-1.8291,-1.8299,-1.8381,-1.8365,-1.8367,-1.8366,-1.8372,-1.8409,-1.8431,-1.84,-1.84,-1.8407,-1.8453,-1.8467,-1.8472,-1.8528,-1.8488,-1.8491,-1.8493,-1.8495,-1.8621,-1.8622,0,0,0,0,0,0,-1.8286,-1.8296,-1.8379,-1.8383,-1.8327,-1.8369,-1.8376,-1.8396,-1.843,-1.8435,-1.8408,-1.8406,-1.8462,-1.8468,-1.8474,-1.8528,-1.8492,-1.8495,-1.8497,-1.862,-1.8622,-1.8623,0,0,0,0,0,0,-1.8283,-1.8293,-1.8377,-1.834,-1.835,-1.8372,-1.8395,-1.8398,-1.8412,-1.8436,-1.844,-1.8419,-1.8461,-1.8469,-1.851,-1.853,-1.8496,-1.85,-1.8618,-1.862,-1.8622,-1.8636,0,0,0,0,0,0,-1.828,-1.8292,-1.831,-1.834,-1.8352,-1.8413,-1.8396,-1.84,-1.8418,-1.8417,-1.8448,-1.8451,-1.8461,-1.8505,-1.8513,-1.8534,-1.8502,-1.8617,-1.8619,-1.8622,-1.8634,-1.8639,-1.8642,0,0,0,0,0,-1.8276,-1.8311,-1.8311,-1.8321,-1.8374,-1.8414,-1.8421,-1.8431,-1.842,-1.8437,-1.8453,-1.8451,-1.8526,-1.8509,-1.8519,-1.854,-1.8615,-1.8619,-1.8621,-1.8632,-1.8638,-1.8642,0,0,0,0,0,0,-1.8282,-1.8315,-1.8315,-1.8361,-1.8385,-1.8414,-1.8436,-1.8436,-1.8463,-1.8461,-1.8473,-1.8479,-1.852,-1.8534,-1.8515,-1.8585,-1.8569,-1.8574,-1.8574,-1.858,-1.8584,-1.8579,-1.8505,0,0,0,0,0,-1.8289,-1.8319,-1.8346,-1.8384,-1.8396,-1.8414,-1.8431,-1.8437,-1.8462,-1.8472,-1.849,-1.8514,-1.8543,-1.8562,-1.859,-1.8636,-1.8643,-1.8656,-1.866,-1.8663,-1.8667,-1.8692,-1.8699,-1.8633,-1.8633,-1.8633,0,0,-1.8303,-1.8325,-1.8343,-1.8385,-1.8404,-1.8435,-1.8422,-1.8455,-1.8477,-1.8477,-1.8517,-1.8531,-1.8558,-1.8602,-1.8622,-1.8615,-1.8687,-1.8667,-1.8669,-1.8672,-1.8696,-1.8702,-1.8708,-1.8635,-1.8634,-1.8634,0,0,-1.8344,-1.8364,-1.8397,-1.8417,-1.8446,-1.8458,-1.8466,-1.8495,-1.8505,-1.8545,-1.8546,-1.8572,-1.8622,-1.8642,-1.8658,-1.8706,-1.8705,-1.8715,-1.8736,-1.8761,-1.8766,-1.8771,-1.8788,-1.8794,-1.8719,-1.8719,-1.8719,0,-1.8358,-1.8404,-1.8415,-1.8447,-1.8466,-1.8468,-1.8502,-1.852,-1.8556,-1.8569,-1.856,-1.8623,-1.8642,-1.869,-1.8702,-1.8715,-1.8724,-1.8712,-1.8764,-1.8769,-1.8774,-1.879,-1.8797,-1.872,-1.872,-1.872,-1.872,0,-1.8419,-1.8451,-1.8475,-1.8511,-1.8532,-1.8565,-1.8581,-1.8601,-1.8605,-1.8617,-1.8658,-1.868,-1.8713,-1.8725,-1.8729,-1.8774,-1.8768,-1.8762,-1.8747,-1.8781,-1.8797,-1.8803,-1.8722,-1.8721,-1.8721,-1.8721,0,0,-1.8466,-1.8508,-1.8516,-1.8533,-1.8565,-1.8589,-1.8622,-1.8655,-1.8672,-1.8697,-1.8725,-1.8767,-1.8761,-1.878,-1.8786,-1.8808,-1.8845,-1.8799,-1.8799,-1.8806,-1.8895,-1.89,-1.8907,-1.8844,-1.8845,-1.8846,-1.8893,0,-1.8511,-1.857,-1.8581,-1.8633,-1.8662,-1.8664,-1.8693,-1.8715,-1.8728,-1.8754,-1.8768,-1.8798,-1.8788,-1.8799,-1.882,-1.8836,-1.8863,-1.8832,-1.887,-1.8871,-1.8863,-1.8916,-1.8921,-1.8964,-1.8899,-1.89,-1.8901,0,-1.8571,-1.8598,-1.8653,-1.8682,-1.8694,-1.872,-1.8751,-1.8776,-1.8801,-1.8809,-1.883,-1.8833,-1.8867,-1.885,-1.8897,-1.8876,-1.8892,-1.8902,-1.8904,-1.8908,-1.8888,-1.8921,-1.8978,-1.8985,-1.8911,-1.891,-1.8909,0,-1.86,-1.865,-1.869,-1.8703,-1.8738,-1.8756,-1.877,-1.8795,-1.8814,-1.884,-1.8852,-1.8882,-1.8899,-1.8921,-1.8933,-1.8919,-1.8979,-1.8963,-1.8986,-1.8986,-1.8999,-1.8998,-1.9059,-1.9008,-1.9008,-1.9008,-1.9008,0,-1.8649,-1.8682,-1.8703,-1.8727,-1.8765,-1.8776,-1.8813,-1.8827,-1.8849,-1.8876,-1.8879,-1.8903,-1.8917,-1.8944,-1.8953,-1.899,-1.8997,-1.9004,-1.9006,-1.9004,-1.9003,-1.9015,-1.9012,-1.901,-1.9009,-1.9009,-1.9009,0,-1.8688,-1.8703,-1.8746,-1.8775,-1.8783,-1.8809,-1.8833,-1.8857,-1.8869,-1.8903,-1.8911,-1.8931,-1.8962,-1.8976,-1.9015,-1.9021,-1.9064,-1.9063,-1.9055,-1.9056,-1.9079,-1.9076,-1.915,-1.916,-1.9102,-1.9103,-1.9103,0,-1.8718,-1.8744,-1.8776,-1.8794,-1.881,-1.8839,-1.8858,-1.8871,-1.889,-1.8921,-1.8941,-1.8973,-1.8999,-1.9049,-1.9066,-1.9096,-1.9097,-1.912,-1.9101,-1.9098,-1.9097,-1.9096,-1.9098,-1.9124,-1.9124,-1.9125,-1.9125,0,-1.8771,-1.8777,-1.8805,-1.8836,-1.8859,-1.8883,-1.8907,-1.8922,-1.8938,-1.896,-1.8993,-1.9013,-1.9053,-1.9084,-1.9115,-1.913,-1.913,-1.9131,-1.9138,-1.9136,-1.9131,-1.9134,-1.9065,-1.9129,-1.9129,-1.9129,-1.9128,-1.9128,-1.8806,-1.8829,-1.8855,-1.8887,-1.8906,-1.8928,-1.8952,-1.8967,-1.8995,-1.9029,-1.9034,-1.9069,-1.9093,-1.9135,-1.915,-1.9178,-1.9172,-1.9182,-1.9184,-1.9187,-1.9188,-1.9126,-1.9183,-1.9183,-1.9183,-1.9183,-1.9183,0,-1.8859,-1.8876,-1.8904,-1.8938,-1.8963,-1.8961,-1.8988,-1.9008,-1.9039,-1.9062,-1.9088,-1.9125,-1.9156,-1.9175,-1.9206,-1.9224,-1.9225,-1.9232,-1.9231,-1.9234,-1.9192,-1.9183,-1.923,-1.923,-1.923,-1.923,-1.923,-1.923,-1.889,-1.8929,-1.8938,-1.8987,-1.9003,-1.9038,-1.9053,-1.9073,-1.9092,-1.9134,-1.9159,-1.9172,-1.9194,-1.9226,-1.9254,-1.9259,-1.927,-1.9277,-1.9282,-1.9242,-1.9237,-1.9232,-1.9224,-1.9279,-1.9279,-1.9322,-1.9322,-1.9322]}]]